Погода в Воронежской

Россия / Краснодарский край     45°12′50″N   39°33′48″E
темп.,
°C
ветер,
м/с
пор.,
м/с
влажн.,
%
обл.,
%
осадки,
мм/ч
давл.,
гПа
погр.,
м
26 февраля, пт
пт2600:00−1з4107699 0.0 1031217
03:00+1зюз4879100 0.1 1030182
06:00+2юз41193100 0.1 1029267
09:00+3юз71490100 0.2 1028357
12:00+5юз8159198 0.1 1028529
15:00+5юз6138899 0.1 1026470
18:00+4юз61490100 0.1 1026422
21:00+3юз6138999 0.2 1025340
27 февраля, сб
сб2700:00+4юз81587100 0.1 1024392
03:00+3юз7168782 0.1 1023440
06:00+4юз7178655 0.0 1021505
09:00+5юз8178269 0.0 1020615
12:00+7юз9157988 0.0 1019829
15:00+8юз8147894 0.0 1017875
18:00+6юз7148265 0.0 1016487
21:00+5юз8168180 0.0 1016511
28 февраля, вс
вс2800:00+5зюз5138899 0.2 1016540
03:00+4з2598100 1.6 1016203
06:00+3ссз3597100 3.5 1016303
09:00+3зсз2397100 6.9 1017235
12:00+3зюз3393100 2.3 1017319
15:00+5з3583100 2.6 1017653
18:00+4зсз2481100 0.2 1018112
21:00+2сз359184 0.3 1020106
1 марта, пн
пн100:000зсз229428 0.0 102142
03:00+1зюз239559 0.0 1022105
06:000зюз229680 0.0 102327
09:00+2зсз229175 0.0 1024233
12:00+3ссз228293 0.2 1025486
15:00+5с226493 0.4 1026979
18:00+3ссв2379100 0.2 102673
21:00+1св368889 0.2 1028153
2 марта, вт
вт200:000всв368590 0.0 1029162
03:00−1всв238757 0.0 103077
06:00−1св24870 0.0 103097
09:00+1всв34770 0.0 1031399
12:00+4ссв336128 0.0 10301021
15:00+5ссз225655 0.0 10291130
18:00+3сз236756 0.0 102832
21:00+1зсз237257 0.0 102845